Location: Unspecified
(35.7250°N, 0.0000°E)
Time: 09:44:18
(UTC+00:00)

Tiros 1 - Pass Details

Date: 02 July 2019
Orbit: 630 x 664 km, 48.4° (Epoch: 17 July)

Event Time Altitude Azimuth Distance (km) Brightness Sun altitude
Rises 00:20:27 0° 310° (NW) 2,951 11.0 -31.1°
Reaches altitude 10° 00:23:03 10° 321° (NW) 2,034 10.2 -31.0°
Maximum altitude 00:27:10 30° 23° (NNE) 1,153 8.9 -30.9°
Enters shadow 00:28:41 24° 56° (ENE) 1,306 9.0 -30.9°
